This is the latest recevied weather packets stored in our database for station/object DD3UTS-13. If no packets are shown the sender has not sent any weather packets the latest 10 day(s).
| Time | Temp. | Humidity | Pressure | Rain* | Wind** | Luminosity | Snow |
|---|---|---|---|---|---|---|---|
| 1778315731 | 13.33° C | 66% | 1019.7 hPa | 0 mm | - | 372 W/m² | - |
| 1778315432 | 13.33° C | 69% | 1019.6 hPa | 0 mm | - | 372 W/m² | - |
| 1778315132 | 13.33° C | 69% | 1019.6 hPa | 0 mm | - | 344 W/m² | - |
| 1778314832 | 12.78° C | 69% | 1019.6 hPa | 0 mm | - | 331 W/m² | - |
| 1778314531 | 12.78° C | 69% | 1019.6 hPa | 0 mm | - | 280 W/m² | - |
| 1778314232 | 12.78° C | 69% | 1019.5 hPa | 0 mm | - | 272 W/m² | - |
| 1778313931 | 12.78° C | 68% | 1019.6 hPa | 0 mm | - | 295 W/m² | - |
| 1778313631 | 12.78° C | 70% | 1019.6 hPa | 0 mm | - | 295 W/m² | - |
| 1778313331 | 12.78° C | 71% | 1019.5 hPa | 0 mm | - | 287 W/m² | - |
| 1778313032 | 12.78° C | 72% | 1019.5 hPa | 0 mm | - | 291 W/m² | - |
| 1778312732 | 12.78° C | 71% | 1019.5 hPa | 0 mm | - | 304 W/m² | - |
| 1778312432 | 12.78° C | 72% | 1019.5 hPa | 0 mm | - | 334 W/m² | - |
| 1778312131 | 12.22° C | 74% | 1019.5 hPa | 0 mm | - | 343 W/m² | - |
| 1778311832 | 12.22° C | 78% | 1019.5 hPa | 0 mm | - | 326 W/m² | - |
| 1778311532 | 11.67° C | 78% | 1019.5 hPa | 0 mm | - | 311 W/m² | - |
| 1778311232 | 11.67° C | 78% | 1019.5 hPa | 0 mm | - | 249 W/m² | - |
| 1778310932 | 11.67° C | 79% | 1019.5 hPa | 0 mm | - | 262 W/m² | - |
| 1778310632 | 11.67° C | 80% | 1019.5 hPa | 0 mm | - | 239 W/m² | - |
| 1778310332 | 11.67° C | 80% | 1019.5 hPa | 0 mm | - | 238 W/m² | - |
| 1778310032 | 11.11° C | 80% | 1019.4 hPa | 0 mm | - | 216 W/m² | - |
| 1778309732 | 11.11° C | 80% | 1019.4 hPa | 0 mm | - | 202 W/m² | - |
| 1778309431 | 11.11° C | 80% | 1019.4 hPa | 0 mm | - | 190 W/m² | - |
| 1778309132 | 10.56° C | 81% | 1019.4 hPa | 0 mm | - | 183 W/m² | - |
| 1778308831 | 10.56° C | 81% | 1019.4 hPa | 0 mm | - | 171 W/m² | - |
| 1778308531 | 10.56° C | 82% | 1019.5 hPa | 0 mm | - | 161 W/m² | - |
* Rain latest 24 hours (hover to see other rain measurements)
** Current wind speed in m/s (hover to see current wind gust speed)